Location: Fasanenhof
(48.7107°N, 9.1590°E)
Time: 03:53:08
(UTC+00:00)

Daily predictions for brighter satellites

Satellite Brightness Start Highest point End
(mag) Time Altitude Azimuth Time Altitude Azimuth Time Altitude Azimuth
Cosmos 2263 Rocket 4.3 00:02:53 11° ESE 00:05:05 13° E 00:07:43 10° ENE
Meteor 2-4 Rocket 4.3 00:02:13 10° NNW 00:07:51 46° W 00:09:25 38° SW
COSMOS 2428 4.3 00:07:16 10° NW 00:11:11 19° W 00:11:40 19° WSW
Cosmos 909 Rocket 4.3 00:09:09 40° S 00:11:33 65° ESE 00:19:11 10° NE
TSX-5 4.3 00:13:07 48° W 00:13:49 56° NW 00:18:30 10° NNE
Lacrosse 5 1.8 00:13:36 56° S 00:14:25 66° SE 00:19:27 10° ENE
Meteor 1-13 Rocket 4.2 00:08:40 10° NNW 00:14:30 79° W 00:16:17 46° S
Cosmos 1536 2.7 00:17:25 71° SE 00:17:42 76° E 00:21:45 10° NNE
Resurs 1-4 Rocket 3.4 00:13:29 10° NNE 00:18:11 31° E 00:20:14 24° SE
Okean 3 3.3 00:18:03 10° N 00:22:22 90° N 00:22:58 66° S
Cosmos 1378 3.7 00:19:11 10° NNW 00:22:28 46° WNW 00:22:28 46° WNW
Cosmos 1743 3.1 00:22:44 49° ESE 00:23:01 50° E 00:26:44 10° NNE
SL-16 R/B 3.2 00:20:03 17° SE 00:24:38 51° ENE 00:30:36 10° N
Cosmos 1269 Rocket 4.4 00:24:18 38° WSW 00:26:07 57° WNW 00:31:21 10° NNE
Meteor 1-23 Rocket 4.3 00:21:56 10° N 00:27:40 79° ENE 00:30:09 36° SSE
Helios 1A 3.0 00:27:16 52° SE 00:28:12 75° ENE 00:32:26 10° N
Cosmos 1992 Rocket 3.9 00:23:59 10° NNW 00:29:13 74° WSW 00:30:41 47° S
Helios 1B rocket 4.4 00:26:22 10° NE 00:29:19 19° E 00:30:42 16° ESE
CZ-4 R/B 4.0 00:25:46 10° NNE 00:30:46 70° ESE 00:32:13 46° S
ATLAS 5 CENTAUR R/B 3.4 00:26:42 10° WNW 00:31:27 27° WSW 00:31:27 27° WSW
Cosmos 1666 4.4 00:36:50 22° W 00:37:20 22° WNW 00:40:25 10° NNW
Cosmos 2219 3.3 00:35:51 37° SW 00:38:09 70° WNW 00:43:56 10° NNE
Cosmos 2242 Rocket 4.4 00:36:12 10° NNW 00:40:14 35° W 00:40:36 35° WSW
Cosmos 1066 Rocket 4.4 00:34:32 10° NNW 00:40:18 59° W 00:42:15 40° SSW
ADEOS Rocket 3.5 00:36:46 15° SE 00:41:03 48° ENE 00:46:20 10° N
Cosmos 1544 3.3 00:41:02 56° W 00:41:07 56° WNW 00:44:42 10° N
Okean 1-7 3.9 00:39:17 10° NNW 00:43:04 32° W 00:43:17 32° W
Cosmos 192 4.2 00:38:34 10° NNW 00:43:32 90° SSW 00:45:27 38° SSE
Cosmos 1869 Rocket 3.7 00:43:19 51° SW 00:44:15 66° WNW 00:48:43 10° N
Cosmos 2181 Rocket 4.0 00:39:28 10° NNW 00:45:47 66° W 00:48:21 36° SSW
Cosmos 546 4.5 00:42:39 10° WNW 00:46:36 80° SSW 00:50:30 10° ESE
UNK 4.2 00:45:21 26° SE 00:47:48 58° ENE 00:52:24 10° N
ADEOS II 3.6 00:46:19 10° NE 00:50:52 29° E 00:53:56 17° SE
Intercosmos 25 Rocket 4.2 00:51:40 35° WSW 00:52:31 40° WNW 00:57:28 10° N
ARGOS Delta rocket 3.9 00:50:14 10° N 00:54:52 59° WNW 00:56:08 42° SW
Cosmos 2082 3.7 00:53:27 39° SSW 00:55:43 82° ESE 01:01:30 10° NNE
Cosmos 1340 Rocket 4.4 00:55:32 22° W 00:56:16 23° WNW 00:59:27 10° NNW
Cosmos 2344 4.3 00:55:07 23° SSE 00:58:57 38° ESE 01:05:54 10° NE
NPP 4.1 00:55:23 10° NNE 01:00:42 55° E 01:03:19 29° SSE
BREEZE-M R/B 3.4 00:58:30 10° W 01:02:17 90° SSE 01:13:28 10° E
USA 267 4.3 00:56:33 10° ENE 01:02:41 44° N 01:08:48 10° WNW
SL-8 R/B 4.2 01:02:22 38° S 01:02:58 40° SSE 01:07:27 10° E
ASTEX 1 3.7 01:03:15 39° SW 01:04:35 49° W 01:09:22 10° NNW
Okean 2 4.0 01:05:17 10° N 01:09:23 53° ENE 01:11:44 23° SE
CZ-2D R/B 2.2 01:03:58 10° NNE 01:09:23 78° ESE 01:11:59 32° S
Cosmos 1238 Rocket 3.5 01:13:03 30° SE 01:14:05 40° E 01:17:37 10° NNE
BREEZE-M DEB (TANK) 2.7 01:09:07 10° W 01:14:12 59° S 01:17:04 10° ESE
Cosmos 1842 3.1 01:10:25 10° N 01:14:17 83° W 01:15:21 47° S
MOZ.5/SAFIR/RUBIN 5/SL-8 4.4 01:13:28 35° SW 01:14:32 41° W 01:19:01 10° NNW
Cosmos 1674 Rocket 3.7 01:10:17 10° N 01:14:44 75° ENE 01:17:01 28° SSE
Cosmos 2297 Rocket 3.4 01:13:56 18° WSW 01:17:27 34° NW 01:22:36 10° NNE
Cosmos 1140 Rocket 4.0 01:15:43 27° SSE 01:18:19 51° ESE 01:23:25 10° NNE
Cosmos 2221 Rocket 3.7 01:14:28 10° NNW 01:18:57 59° W 01:20:29 38° SSW
NOSS 3-3 (A) 4.4 01:16:19 27° S 01:19:07 47° ESE 01:25:19 10° NE
NOSS 3-3 (C) 4.4 01:16:26 27° S 01:19:14 47° ESE 01:25:24 10° NE
Cosmos 2237 Rocket 4.0 01:17:27 10° WNW 01:20:29 15° W 01:20:45 15° W
Nadezhda 3 Rocket 4.0 01:14:07 10° N 01:20:32 89° E 01:25:03 21° S
Cosmos 1975 3.0 01:19:06 37° S 01:20:37 70° E 01:24:41 10° NNE
CZ-4C R/B 2.9 01:15:41 10° NW 01:22:51 78° SW 01:31:15 10° SSE
Cosmos 2251 Rocket 3.7 01:21:51 32° SW 01:24:17 63° WNW 01:29:35 10° NNE
Cosmos 2327 Rocket 4.4 01:25:05 26° S 01:28:49 87° E 01:34:59 10° N
Cosmos 2227 Rocket 3.3 01:25:26 19° WSW 01:28:55 36° NW 01:34:08 10° NNE
Cosmos 1603 3.9 01:25:54 10° NNW 01:31:32 74° ENE 01:37:11 10° SE
Cosmos 1378 Rocket 3.4 01:29:05 10° NNW 01:33:28 82° W 01:35:43 28° S
IDEFIX/ARIANE 42P 3.7 01:29:48 10° NNE 01:34:38 38° E 01:38:50 13° SSE
Iridium 4 Rocket 3.7 01:32:30 10° N 01:38:07 84° W 01:42:12 21° S
SL-24 R/B - RUBIN 2 4.0 01:33:03 10° NW 01:38:13 72° NE 01:42:48 10° SE
Cosmos 44 3.3 01:33:57 10° NW 01:39:13 68° WSW 01:44:08 10° SSE
Meteor 1-21 4.2 01:34:36 10° NNW 01:40:24 74° W 01:44:39 19° S
ATLAS CENTAUR R/B 1.9 01:41:34 28° S 01:43:03 43° ESE 01:46:51 10° NE
Cosmos 1295 Rocket 4.4 01:40:27 24° SSW 01:44:22 80° W 01:50:30 10° N
Meteor 2-9 Rocket 4.1 01:42:11 27° SSW 01:45:05 67° WNW 01:50:28 10° N
ARIANE 5 R/B 4.5 01:42:55 10° NE 01:47:07 24° E 01:51:19 10° SSE
SL-16 R/B 3.3 01:43:04 10° NW 01:47:37 25° WSW 01:49:02 23° SW
Cosmos 2263 Rocket 2.2 01:44:35 25° SSW 01:48:02 79° ESE 01:53:46 10° NNE
Cosmos 1908 Rocket 3.6 01:46:32 24° S 01:49:03 77° E 01:53:25 10° NNE
Cosmos 1733 Rocket 3.8 01:50:31 26° SW 01:52:27 39° WNW 01:56:40 10° N
Cosmos 2227 4.3 01:49:20 23° SSW 01:52:56 73° ESE 01:58:34 10° NNE
Meteor 1-28 Rocket 3.0 01:52:52 21° S 01:55:18 82° WSW 01:59:03 10° NNW
In-Cosmos 22 4.2 01:50:10 10° NNW 01:55:59 83° W 02:01:35 11° S
AQUA 4.0 01:52:42 10° N 01:57:23 59° WNW 02:00:11 24° SW
Lacrosse 5 2.9 01:52:47 10° W 01:57:39 43° NNW 02:02:30 10° NE
Resurs 1-4 Rocket 2.7 01:53:08 10° N 01:58:08 43° WNW 02:01:18 21° SW
Cosmos 1400 Rocket 4.5 01:55:23 10° SSE 01:58:46 29° E 02:02:12 10° NNE
Cosmos 2154 Rocket 4.2 01:55:31 22° SW 01:59:28 55° WNW 02:05:35 10° N
Cosmos 1461 3.4 02:00:29 22° WSW 02:03:14 59° NW 02:07:36 10° NNE
Helios 1B rocket 2.9 02:00:51 10° N 02:04:47 46° WNW 02:06:59 23° SW
SL-16 R/B 3.3 02:05:09 20° SW 02:08:28 32° W 02:13:58 10° NNW
IRS-1D 3.4 02:05:08 10° NNE 02:10:08 86° WNW 02:14:01 17° SSW
Landsat 4 3.6 02:06:58 10° NNE 02:10:42 89° ESE 02:13:08 20° SSW
USA 290 2.8 02:09:30 10° NNW 02:12:44 59° ENE 02:15:56 10° SE
Cosmos 676 Rocket 4.2 02:08:47 17° SSW 02:12:57 73° ESE 02:18:18 10° NNE
Cosmos 407 Rocket 3.9 02:12:19 20° SW 02:15:54 53° WNW 02:21:03 10° NNE
KORONAS-FOTON 3.8 02:12:26 10° N 02:16:23 84° W 02:20:18 10° S
Cosmos 1763 Rocket 3.8 02:12:22 10° NNW 02:17:43 71° ENE 02:22:59 10° SSE
Meteor 2-20 4.5 02:12:56 10° N 02:19:08 89° WSW 02:25:17 10° S
MSX 4.0 02:17:05 10° NNE 02:22:49 72° ESE 02:28:31 10° S
Spot 1 4.1 02:19:24 10° SSE 02:23:29 78° ENE 02:27:35 10° NNW
Cosmos 1943 3.4 02:18:25 10° NW 02:23:54 49° WSW 02:29:20 10° S
Cosmos 1805 3.7 02:21:20 10° S 02:25:09 60° E 02:29:01 10° NNE
DELTA 2 DEB (DPAF) 4.4 02:22:53 13° S 02:26:44 48° W 02:31:04 10° NNW
ADEOS Rocket 3.8 02:23:43 17° SW 02:26:54 27° W 02:31:33 10° NW
CZ-4C R/B 3.5 02:23:26 10° S 02:27:36 80° WSW 02:32:00 10° NNW
SL-8 Rocket 4.0 02:22:22 12° SSW 02:28:09 79° W 02:34:20 10° N
Cosmos 1707 3.8 02:25:06 10° NNW 02:28:22 27° W 02:30:18 18° SW
Cosmos 1626 2.2 02:24:40 10° N 02:28:23 79° E 02:32:03 10° SSE
Orbus 7S? 4.3 02:23:24 15° SW 02:29:51 60° SE 02:33:29 10° ENE
ADEOS II 2.6 02:25:43 10° N 02:30:44 46° WNW 02:34:53 15° SW
Cosmos 1356 Rocket 4.4 02:29:08 17° WSW 02:31:34 31° WNW 02:35:09 10° N
Cosmos 1782 Rocket 3.6 02:28:29 14° SSW 02:32:08 70° W 02:36:32 10° N
Cosmos 2366 rocket 4.1 02:27:02 10° S 02:33:24 87° W 02:39:48 10° N
Cosmos 1733 3.5 02:31:00 10° S 02:34:48 65° E 02:38:37 10° NNE
Meteor 1-29 3.8 02:31:52 10° N 02:34:54 33° WNW 02:36:59 17° SW
Cosmos 1340 3.0 02:32:51 10° NNW 02:36:28 46° W 02:40:02 10° S
Okean 2 Rocket 4.0 02:35:46 10° SSE 02:40:07 49° E 02:44:30 10° NNE
Cosmos 540 Rocket 3.9 02:38:56 10° NNW 02:44:07 67° ENE 02:49:16 10° SSE
USA 267 4.2 02:38:46 10° E 02:45:00 50° NNE 02:51:16 10° WNW
SL-8 R/B 3.7 02:40:26 10° WSW 02:45:14 83° S 02:50:04 10° E
Cosmos 1346 Rocket 3.3 02:41:25 10° N 02:45:18 60° ENE 02:49:10 10° SSE
SL-14 R/B 3.4 02:42:02 10° N 02:45:57 77° E 02:49:52 10° SSE
Cosmos 1818 3.6 02:42:25 10° NW 02:47:52 66° WSW 02:53:16 10° SSE
CZ-2D R/B 3.8 02:45:03 10° NNW 02:48:51 20° WNW 02:52:41 10° WSW
Cosmos 1674 3.5 02:46:59 10° NNW 02:50:29 34° W 02:53:58 10° SSW
CBERS-1 4.4 02:46:10 10° N 02:51:07 50° WNW 02:56:03 10° SW
Cosmos 1536 Rocket 4.3 02:47:45 10° N 02:52:06 58° ENE 02:56:26 10° SSE
Sich 1 Rocket 3.6 02:47:53 10° S 02:52:17 89° ESE 02:56:46 10° N
IRS-1C 4.2 02:52:12 10° NNE 02:57:34 76° WNW 03:02:53 10° SSW
Cosmos 1766 3.2 02:55:54 10° S 02:59:47 85° W 03:03:45 10° N
Meteor 1-15 Rocket 4.4 02:53:54 10° S 02:59:50 88° WNW 03:05:43 10° NNE
NOSS 3-4 (A) 3.9 02:52:57 10° NW 02:59:52 68° SW 03:07:36 10° SSE
Cosmos 2151 Rocket 4.1 02:55:35 10° S 02:59:54 61° E 03:04:17 10° NNE
NOSS 3-4 (C) 3.9 02:53:03 10° NW 02:59:59 69° SW 03:07:43 10° SSE
Cosmos 1844 Rocket 3.1 02:54:23 10° SSW 02:59:59 66° ESE 03:05:38 10° NNE
Cosmos 1470 4.4 02:56:30 10° SSE 03:00:04 34° E 03:03:37 10° NNE
CZ-4B R/B 3.5 02:55:33 10° NNE 03:00:25 81° ESE 03:05:11 10° SSW
Cosmos 2218 Rocket 4.3 02:58:30 10° SSW 03:04:42 53° WNW 03:10:52 10° N
Cosmos 1727 Rocket 4.1 02:58:39 10° NNW 03:04:50 66° W 03:11:03 10° S
SL-08 R/B 3.5 03:00:31 10° S 03:05:25 63° WSW 03:10:21 10° NNW
Cosmos 1300 Rocket 3.6 03:02:00 10° SSW 03:06:19 68° W 03:10:42 10° N
USA 281 4.0 03:02:40 10° SE 03:09:05 59° ENE 03:15:32 10° NNW
ATLAS 2AS CENTAUR R/B 3.0 03:02:10 10° NW 03:09:37 83° NE 03:16:25 10° SE
Cosmos 468 Rocket 4.3 03:04:34 10° NNW 03:09:37 46° WSW 03:14:35 10° S
CZ-4C R/B 4.1 03:05:20 10° WNW 03:10:50 22° WSW 03:16:48 10° SSW
Meteor 1-24 Rocket 4.0 03:05:01 10° N 03:11:01 84° ENE 03:16:47 10° SSE
GEOS 3 Rocket 3.7 03:06:06 10° SSE 03:11:26 72° SW 03:16:46 10° NW
Cosmos 2344 4.0 03:05:43 10° WSW 03:12:59 56° NW 03:21:05 10° NE
Cosmos 1975 Rocket 4.1 03:09:27 10° NNW 03:13:10 27° W 03:16:49 10° SW
IDEFIX/ARIANE 42P 3.5 03:09:31 10° N 03:14:10 34° WNW 03:18:48 10° SW
BREEZE-M DEB (TANK) 3.0 03:09:54 10° WSW 03:17:12 83° SSE 03:19:52 10° E
Cosmos 1850 Rocket 4.1 03:12:45 10° SSW 03:18:03 83° WNW 03:23:20 10° NNE
Meteor 2-10 4.3 03:15:55 10° S 03:21:03 74° E 03:26:25 10° NNE
